| time (UTC) | temp F | wind direction | speed knots | gust knots | rain 1hr in | rain 24hr in | rain mn in | humidity % | barometer mb |
| 20260504050646 | 38 | 322 | 0.0 | 0.0 | 0.00 | 0.00 | 0.00 | 89 | 1010.9 |
| 20260504050143 | 39 | 322 | 0.0 | 0.0 | 0.00 | 0.00 | 0.00 | 89 | 1011.1 |
| 20260504045640 | 39 | 322 | 0.0 | 0.0 | 0.00 | 0.00 | 0.00 | 89 | 1011.0 |
| 20260504045135 | 39 | 322 | 0.0 | 0.0 | 0.00 | 0.00 | 0.00 | 89 | 1010.9 |
| 20260504044633 | 39 | 322 | 0.0 | 0.0 | 0.00 | 0.00 | 0.00 | 89 | 1011.0 |
| 20260504044129 | 39 | 322 | 0.0 | 0.0 | 0.00 | 0.00 | 0.00 | 89 | 1011.1 |
| 20260504043627 | 39 | 322 | 0.0 | 0.0 | 0.00 | 0.00 | 0.00 | 88 | 1011.0 |
| 20260504043124 | 39 | 322 | 0.0 | 0.0 | 0.00 | 0.00 | 0.00 | 88 | 1011.0 |
| 20260504042621 | 40 | 322 | 0.0 | 0.0 | 0.00 | 0.00 | 0.00 | 88 | 1010.7 |
| 20260504042118 | 39 | 322 | 0.0 | 0.0 | 0.00 | 0.00 | 0.00 | 88 | 1011.0 |
| 20260504041613 | 39 | 322 | 0.0 | 0.0 | 0.00 | 0.00 | 0.00 | 88 | 1010.7 |
| 20260504041110 | 39 | 322 | 0.0 | 0.0 | 0.00 | 0.00 | 0.00 | 88 | 1010.7 |
| 20260504040607 | 39 | 322 | 0.0 | 0.0 | 0.00 | 0.00 | 0.00 | 88 | 1010.8 |
| 20260504040104 | 40 | 322 | 0.0 | 0.0 | 0.00 | 0.00 | 0.00 | 88 | 1010.7 |
| 20260504035601 | 40 | 322 | 0.0 | 0.0 | 0.00 | 0.00 | 0.00 | 87 | 1010.7 |
| 20260504035057 | 40 | 322 | 0.0 | 0.0 | 0.00 | 0.00 | 0.00 | 87 | 1010.6 |
| 20260504034555 | 40 | 322 | 0.0 | 0.0 | 0.00 | 0.00 | 0.00 | 86 | 1010.7 |
| 20260504034051 | 40 | 322 | 0.0 | 0.0 | 0.00 | 0.00 | 0.00 | 86 | 1010.5 |
| 20260504033549 | 41 | 322 | 0.0 | 0.0 | 0.00 | 0.00 | 0.00 | 85 | 1010.6 |
| 20260504033047 | 41 | 322 | 0.0 | 0.0 | 0.00 | 0.00 | 0.00 | 84 | 1010.3 |
| 20260504032543 | 41 | 322 | 0.0 | 0.0 | 0.00 | 0.00 | 0.00 | 84 | 1010.5 |
| 20260504032040 | 41 | 322 | 0.0 | 0.0 | 0.00 | 0.00 | 0.00 | 83 | 1010.6 |
| 20260504031537 | 42 | 322 | 0.0 | 0.0 | 0.00 | 0.00 | 0.00 | 82 | 1010.5 |
| 20260504031033 | 42 | 322 | 0.0 | 0.0 | 0.00 | 0.00 | 0.00 | 81 | 1010.4 |
| 20260504030531 | 42 | 322 | 0.0 | 0.0 | 0.00 | 0.00 | 0.00 | 81 | 1010.4 |
| 20260504030027 | 42 | 322 | 0.0 | 0.0 | 0.00 | 0.00 | 0.00 | 80 | 1010.4 |
| 20260504025524 | 43 | 322 | 0.0 | 0.0 | 0.00 | 0.00 | 0.00 | 79 | 1010.4 |
| 20260504025021 | 43 | 322 | 0.0 | 0.0 | 0.00 | 0.00 | 0.00 | 79 | 1010.5 |
| 20260504024518 | 43 | 322 | 0.0 | 0.0 | 0.00 | 0.00 | 0.00 | 79 | 1010.6 |
| 20260504024015 | 44 | 322 | 0.0 | 0.0 | 0.00 | 0.00 | 0.00 | 78 | 1010.6 |
| 20260504023511 | 44 | 322 | 0.0 | 0.0 | 0.00 | 0.00 | 0.00 | 78 | 1010.4 |
| 20260504023007 | 44 | 322 | 0.0 | 0.0 | 0.00 | 0.00 | 0.00 | 77 | 1010.7 |
| 20260504022503 | 44 | 322 | 0.0 | 0.0 | 0.00 | 0.00 | 0.00 | 75 | 1010.4 |
| 20260504022000 | 44 | 322 | 0.0 | 0.0 | 0.00 | 0.00 | 0.00 | 75 | 1010.5 |
| 20260504021457 | 44 | 322 | 0.0 | 0.0 | 0.00 | 0.00 | 0.00 | 75 | 1010.5 |
| 20260504020954 | 44 | 322 | 0.0 | 0.0 | 0.00 | 0.00 | 0.00 | 75 | 1010.5 |
| 20260504020451 | 45 | 322 | 0.0 | 0.0 | 0.00 | 0.00 | 0.00 | 74 | 1010.5 |
| 20260504015948 | 45 | 322 | 0.0 | 0.0 | 0.00 | 0.00 | 0.00 | 74 | 1010.4 |
| 20260504015444 | 45 | 322 | 0.0 | 0.0 | 0.00 | 0.00 | 0.00 | 74 | 1010.1 |
| 20260504014940 | 46 | 322 | 0.0 | 0.0 | 0.00 | 0.00 | 0.00 | 73 | 1010.3 |
| 20260504014436 | 46 | 322 | 0.0 | 0.0 | 0.00 | 0.00 | 0.00 | 72 | 1010.1 |
| 20260504013933 | 46 | 322 | 0.0 | 0.0 | 0.00 | 0.00 | 0.00 | 72 | 1010.0 |
| 20260504013432 | 46 | 322 | 0.0 | 0.0 | 0.00 | 0.00 | 0.00 | 70 | 1010.3 |
| 20260504012927 | 47 | 322 | 0.0 | 0.0 | 0.00 | 0.00 | 0.00 | 70 | 1010.2 |
| 20260504012425 | 47 | 322 | 0.0 | 0.0 | 0.00 | 0.00 | 0.00 | 69 | 1010.2 |
| 20260504011922 | 48 | 322 | 0.0 | 0.0 | 0.00 | 0.00 | 0.00 | 69 | 1010.2 |
| 20260504011419 | 48 | 322 | 0.0 | 0.0 | 0.00 | 0.00 | 0.00 | 67 | 1009.9 |
| 20260504010915 | 48 | 322 | 0.0 | 0.0 | 0.00 | 0.00 | 0.00 | 66 | 1010.1 |
| 20260504010411 | 49 | 322 | 0.0 | 0.0 | 0.00 | 0.00 | 0.00 | 64 | 1009.9 |
| 20260504005907 | 50 | 322 | 0.0 | 0.0 | 0.00 | 0.00 | 0.00 | 62 | 1009.9 |
| 20260504005404 | 50 | 322 | 0.0 | 0.0 | 0.00 | 0.00 | 0.00 | 59 | 1010.0 |
| 20260504004902 | 51 | 322 | 0.0 | 0.0 | 0.00 | 0.00 | 0.00 | 58 | 1009.6 |
| 20260504004400 | 51 | 322 | 0.0 | 0.0 | 0.00 | 0.00 | 0.00 | 56 | 1009.7 |
| 20260504003855 | 53 | 322 | 0.0 | 0.0 | 0.00 | 0.00 | 0.00 | 55 | 1009.5 |
| 20260504003352 | 54 | 321 | 0.0 | 0.9 | 0.00 | 0.00 | 0.00 | 49 | 1009.7 |
| 20260504002849 | 54 | 323 | 0.0 | 0.9 | 0.00 | 0.00 | 0.00 | 47 | 1009.7 |
| 20260504002346 | 55 | 329 | 0.9 | 0.9 | 0.00 | 0.00 | 0.00 | 46 | 1009.6 |
| 20260504001844 | 55 | 321 | 0.9 | 0.9 | 0.00 | 0.00 | 0.00 | 45 | 1009.5 |
| 20260504001341 | 56 | 333 | 0.9 | 0.9 | 0.00 | 0.00 | 0.00 | 44 | 1009.5 |
| 20260504000837 | 56 | 326 | 0.9 | 1.7 | 0.00 | 0.00 | 0.00 | 43 | 1009.6 |
| 20260504000334 | 57 | 306 | 1.7 | 2.6 | 0.00 | 0.00 | 0.00 | 42 | 1009.5 |
| 20260503235832 | 57 | 324 | 1.7 | 2.6 | 0.00 | 0.00 | 0.00 | 42 | 1009.4 |
| 20260503235330 | 57 | 305 | 2.6 | 4.3 | 0.00 | 0.00 | 0.00 | 41 | 1009.5 |
| 20260503234827 | 58 | 326 | 0.0 | 1.7 | 0.00 | 0.00 | 0.00 | 41 | 1009.3 |
| 20260503234324 | 58 | 329 | 0.9 | 4.3 | 0.00 | 0.00 | 0.00 | 41 | 1009.5 |
| 20260503233822 | 58 | 256 | 3.5 | 6.1 | 0.00 | 0.00 | 0.00 | 39 | 1009.4 |
| 20260503233318 | 59 | 240 | 3.5 | 5.2 | 0.00 | 0.00 | 0.00 | 39 | 1009.5 |
| 20260503232814 | 59 | 283 | 2.6 | 8.7 | 0.00 | 0.00 | 0.00 | 38 | 1009.2 |
| 20260503232312 | 59 | 297 | 3.5 | 7.0 | 0.00 | 0.00 | 0.00 | 38 | 1009.3 |
| 20260503231810 | 59 | 338 | 3.5 | 8.7 | 0.00 | 0.00 | 0.00 | 38 | 1009.3 |
| 20260503231307 | 60 | 334 | 2.6 | 7.0 | 0.00 | 0.00 | 0.00 | 38 | 1009.3 |
| 20260503230802 | 60 | 270 | 1.7 | 7.8 | 0.00 | 0.00 | 0.00 | 37 | 1009.3 |
| 20260503230300 | 60 | 278 | 4.3 | 7.0 | 0.00 | 0.00 | 0.00 | 37 | 1009.3 |
| 20260503225757 | 60 | 309 | 3.5 | 6.1 | 0.00 | 0.00 | 0.00 | 37 | 1009.1 |
| 20260503225252 | 61 | 271 | 1.7 | 4.3 | 0.00 | 0.00 | 0.00 | 37 | 1009.1 |
| 20260503224749 | 61 | 326 | 0.9 | 6.1 | 0.00 | 0.00 | 0.00 | 37 | 1009.1 |
| 20260503224247 | 60 | 307 | 5.2 | 7.0 | 0.00 | 0.00 | 0.00 | 36 | 1009.1 |
| 20260503223744 | 60 | 258 | 2.6 | 6.1 | 0.00 | 0.00 | 0.00 | 39 | 1009.2 |
| 20260503223242 | 61 | 260 | 3.5 | 6.1 | 0.00 | 0.00 | 0.00 | 36 | 1009.1 |
| 20260503222738 | 61 | 320 | 3.5 | 5.2 | 0.00 | 0.00 | 0.00 | 37 | 1009.1 |
| 20260503222236 | 60 | 256 | 3.5 | 6.1 | 0.00 | 0.00 | 0.00 | 37 | 1009.1 |
| 20260503221734 | 60 | 333 | 1.7 | 6.1 | 0.00 | 0.00 | 0.00 | 39 | 1009.2 |
| 20260503221232 | 60 | 236 | 4.3 | 7.8 | 0.00 | 0.00 | 0.00 | 38 | 1009.3 |
| 20260503220728 | 60 | 235 | 1.7 | 6.1 | 0.00 | 0.00 | 0.00 | 39 | 1009.4 |
| 20260503220225 | 60 | 314 | 6.1 | 12.2 | 0.00 | 0.00 | 0.00 | 38 | 1009.2 |
| 20260503215721 | 60 | 346 | 4.3 | 5.2 | 0.00 | 0.00 | 0.00 | 37 | 1009.3 |
| 20260503215219 | 60 | 35 | 7.8 | 9.6 | 0.00 | 0.00 | 0.00 | 36 | 1009.6 |
| 20260503214717 | 60 | 247 | 4.3 | 8.7 | 0.00 | 0.00 | 0.00 | 37 | 1009.4 |
| 20260503214213 | 60 | 239 | 2.6 | 8.7 | 0.00 | 0.00 | 0.00 | 37 | 1009.1 |
| 20260503213711 | 60 | 330 | 1.7 | 4.3 | 0.00 | 0.00 | 0.00 | 37 | 1009.2 |
| 20260503213208 | 60 | 323 | 4.3 | 8.7 | 0.00 | 0.00 | 0.00 | 37 | 1009.5 |
| 20260503212705 | 61 | 245 | 3.5 | 9.6 | 0.00 | 0.00 | 0.00 | 36 | 1009.1 |
| 20260503212203 | 62 | 308 | 2.6 | 5.2 | 0.00 | 0.00 | 0.00 | 36 | 1009.2 |
| 20260503211700 | 62 | 342 | 1.7 | 7.0 | 0.00 | 0.00 | 0.00 | 36 | 1009.3 |
| 20260503211155 | 61 | 277 | 2.6 | 6.1 | 0.00 | 0.00 | 0.00 | 37 | 1009.2 |
| 20260503210652 | 60 | 222 | 2.6 | 6.1 | 0.00 | 0.00 | 0.00 | 37 | 1009.1 |
| 20260503210149 | 60 | 312 | 1.7 | 7.0 | 0.00 | 0.00 | 0.00 | 36 | 1009.0 |
| 20260503205644 | 61 | 311 | 3.5 | 7.0 | 0.00 | 0.00 | 0.00 | 35 | 1009.0 |
| 20260503205141 | 61 | 241 | 2.6 | 7.8 | 0.00 | 0.00 | 0.00 | 35 | 1009.1 |
| 20260503204637 | 60 | 337 | 4.3 | 9.6 | 0.00 | 0.00 | 0.00 | 37 | 1009.2 |
| 20260503204135 | 61 | 262 | 7.8 | 11.3 | 0.00 | 0.00 | 0.00 | 35 | 1009.4 |
| 20260503203632 | 61 | 22 | 3.5 | 6.1 | 0.00 | 0.00 | 0.00 | 36 | 1009.1 |
| 20260503203130 | 61 | 300 | 4.3 | 11.3 | 0.00 | 0.00 | 0.00 | 35 | 1009.3 |
| 20260503202627 | 62 | 337 | 4.3 | 7.8 | 0.00 | 0.00 | 0.00 | 35 | 1009.3 |
| 20260503202125 | 61 | 344 | 0.9 | 7.0 | 0.00 | 0.00 | 0.00 | 36 | 1009.3 |
| 20260503201623 | 61 | 347 | 0.9 | 5.2 | 0.00 | 0.00 | 0.00 | 37 | 1009.1 |
| 20260503201120 | 61 | 302 | 5.2 | 11.3 | 0.00 | 0.00 | 0.00 | 36 | 1009.6 |
| 20260503200616 | 61 | 294 | 4.3 | 7.0 | 0.00 | 0.00 | 0.00 | 35 | 1009.4 |
| 20260503200112 | 62 | 258 | 1.7 | 4.3 | 0.00 | 0.00 | 0.00 | 36 | 1009.3 |
| 20260503195610 | 61 | 2 | 2.6 | 6.1 | 0.00 | 0.00 | 0.00 | 38 | 1009.6 |
| 20260503195106 | 60 | 243 | 2.6 | 7.0 | 0.00 | 0.00 | 0.00 | 38 | 1009.6 |
| 20260503194604 | 61 | 257 | 1.7 | 7.0 | 0.00 | 0.00 | 0.00 | 38 | 1009.5 |
| 20260503194058 | 61 | 337 | 4.3 | 9.6 | 0.00 | 0.00 | 0.00 | 36 | 1009.8 |
| 20260503193555 | 59 | 238 | 2.6 | 7.0 | 0.00 | 0.00 | 0.00 | 37 | 1010.0 |
| 20260503193050 | 59 | 323 | 6.1 | 7.0 | 0.00 | 0.00 | 0.00 | 38 | 1010.1 |
| 20260503192547 | 59 | 330 | 1.7 | 6.1 | 0.00 | 0.00 | 0.00 | 37 | 1009.8 |
| 20260503192043 | 59 | 351 | 4.3 | 6.1 | 0.00 | 0.00 | 0.00 | 37 | 1009.9 |
| 20260503191540 | 59 | 346 | 2.6 | 6.1 | 0.00 | 0.00 | 0.00 | 38 | 1009.9 |
| 20260503191036 | 60 | 237 | 5.2 | 7.8 | 0.00 | 0.00 | 0.00 | 36 | 1010.0 |
| 20260503190533 | 59 | 288 | 0.9 | 7.8 | 0.00 | 0.00 | 0.00 | 38 | 1010.0 |
| 20260503190031 | 59 | 3 | 1.7 | 2.6 | 0.00 | 0.00 | 0.00 | 38 | 1010.3 |
| 20260503185527 | 60 | 340 | 2.6 | 2.6 | 0.00 | 0.00 | 0.00 | 37 | 1010.3 |
| 20260503185027 | 61 | 247 | 2.6 | 11.3 | 0.00 | 0.00 | 0.00 | 35 | 1010.3 |
| 20260503184523 | 60 | 292 | 1.7 | 7.0 | 0.00 | 0.00 | 0.00 | 37 | 1010.2 |
| 20260503184020 | 60 | 345 | 6.1 | 7.8 | 0.00 | 0.00 | 0.00 | 37 | 1010.4 |
| 20260503183516 | 60 | 262 | 4.3 | 7.8 | 0.00 | 0.00 | 0.00 | 36 | 1010.3 |
| 20260503183014 | 60 | 298 | 3.5 | 9.6 | 0.00 | 0.00 | 0.00 | 38 | 1010.5 |
| 20260503182512 | 59 | 336 | 2.6 | 6.1 | 0.00 | 0.00 | 0.00 | 38 | 1010.5 |
| 20260503182009 | 58 | 358 | 3.5 | 7.0 | 0.00 | 0.00 | 0.00 | 40 | 1010.4 |
| 20260503181507 | 58 | 211 | 1.7 | 5.2 | 0.00 | 0.00 | 0.00 | 39 | 1010.5 |
| 20260503181002 | 59 | 337 | 2.6 | 5.2 | 0.00 | 0.00 | 0.00 | 42 | 1010.2 |
| 20260503180500 | 57 | 322 | 4.3 | 5.2 | 0.00 | 0.00 | 0.00 | 40 | 1010.4 |
| 20260503175957 | 58 | 2 | 2.6 | 11.3 | 0.00 | 0.00 | 0.00 | 37 | 1010.5 |
| 20260503175455 | 59 | 304 | 2.6 | 7.8 | 0.00 | 0.00 | 0.00 | 38 | 1010.6 |
| 20260503174951 | 58 | 319 | 2.6 | 5.2 | 0.00 | 0.00 | 0.00 | 41 | 1010.6 |
| 20260503174449 | 57 | 335 | 3.5 | 7.8 | 0.00 | 0.00 | 0.00 | 39 | 1010.4 |
| 20260503173944 | 57 | 309 | 1.7 | 5.2 | 0.00 | 0.00 | 0.00 | 39 | 1010.6 |
| 20260503173440 | 58 | 312 | 2.6 | 9.6 | 0.00 | 0.00 | 0.00 | 37 | 1010.6 |
| 20260503172937 | 59 | 322 | 2.6 | 4.3 | 0.00 | 0.00 | 0.00 | 38 | 1010.5 |
| 20260503172434 | 57 | 37 | 3.5 | 4.3 | 0.00 | 0.00 | 0.00 | 37 | 1010.7 |
| 20260503171931 | 56 | 258 | 2.6 | 8.7 | 0.00 | 0.00 | 0.00 | 39 | 1010.6 |
| 20260503171427 | 57 | 10 | 2.6 | 4.3 | 0.00 | 0.00 | 0.00 | 38 | 1010.6 |
| 20260503170925 | 57 | 355 | 4.3 | 6.1 | 0.00 | 0.00 | 0.00 | 39 | 1010.9 |
| 20260503170421 | 58 | 283 | 2.6 | 5.2 | 0.00 | 0.00 | 0.00 | 37 | 1010.8 |
| 20260503150814 | 51 | 324 | 1.7 | 4.3 | 0.00 | 0.00 | 0.00 | 46 | 1012.6 |
| 20260503150309 | 51 | 330 | 4.3 | 11.3 | 0.00 | 0.00 | 0.00 | 46 | 1012.7 |
| 20260503140234 | 50 | 348 | 5.2 | 8.7 | 0.00 | 0.00 | 0.00 | 50 | 1013.3 |
| 20260503131203 | 49 | 50 | 2.6 | 2.6 | 0.00 | 0.00 | 0.00 | 54 | 1013.4 |
| 20260503130701 | 48 | 350 | 0.9 | 4.3 | 0.00 | 0.00 | 0.00 | 61 | 1013.5 |
| 20260503130158 | 48 | 327 | 0.9 | 2.6 | 0.00 | 0.00 | 0.00 | 61 | 1013.3 |
| 20260503120124 | 43 | 305 | 0.9 | 2.6 | 0.00 | 0.00 | 0.00 | 65 | 1013.4 |
| 20260503110551 | 39 | 282 | 1.7 | 1.7 | 0.00 | 0.00 | 0.00 | 78 | 1013.0 |
| 20260503090438 | 36 | 328 | 0.0 | 0.9 | 0.00 | 0.00 | 0.00 | 82 | 1012.3 |
| 20260503081404 | 39 | 284 | 0.9 | 0.9 | 0.00 | 0.00 | 0.00 | 73 | 1012.1 |
| 20260503080901 | 39 | 331 | 0.0 | 0.0 | 0.00 | 0.00 | 0.00 | 72 | 1012.0 |
| 20260503080358 | 40 | 316 | 0.9 | 0.9 | 0.00 | 0.00 | 0.00 | 71 | 1012.1 |
| 20260503072835 | 41 | 325 | 0.9 | 1.7 | 0.00 | 0.00 | 0.00 | 67 | 1011.6 |
| 20260503072332 | 41 | 308 | 2.6 | 2.6 | 0.00 | 0.00 | 0.00 | 68 | 1011.6 |
| 20260503071828 | 41 | 316 | 0.9 | 1.7 | 0.00 | 0.00 | 0.00 | 67 | 1011.6 |
| 20260503071326 | 41 | 320 | 0.0 | 2.6 | 0.00 | 0.00 | 0.00 | 67 | 1011.5 |
| 20260503070821 | 41 | 309 | 0.0 | 1.7 | 0.00 | 0.00 | 0.00 | 66 | 1011.6 |
| 20260503070320 | 41 | 320 | 0.9 | 0.9 | 0.00 | 0.00 | 0.00 | 67 | 1011.6 |
| 20260503060244 | 43 | 340 | 0.9 | 1.7 | 0.00 | 0.00 | 0.00 | 63 | 1011.6 |
| 20260503054731 | 44 | 348 | 2.6 | 2.6 | 0.00 | 0.00 | 0.00 | 62 | 1011.5 |
| 20260503054228 | 44 | 357 | 2.6 | 5.2 | 0.00 | 0.00 | 0.00 | 60 | 1011.7 |
| 20260503053726 | 44 | 330 | 0.9 | 1.7 | 0.00 | 0.00 | 0.00 | 62 | 1011.7 |
| 20260503053225 | 44 | 350 | 0.9 | 1.7 | 0.00 | 0.00 | 0.00 | 61 | 1011.8 |
| 20260503052721 | 44 | 10 | 1.7 | 4.3 | 0.00 | 0.00 | 0.00 | 61 | 1011.7 |
| 20260503052217 | 44 | 329 | 2.6 | 2.6 | 0.00 | 0.00 | 0.00 | 60 | 1011.8 |